User: anonymous   Login
Location: Niverville
(49.6028°N, 97.0419°W)
Time: 11:54:01
(UTC-05:00)
Language:

BREEZE-M DEB (TANK) - Orbit

View from above orbital plane
View from above orbital plane
View from above satellite
View from above satellite

Ground track
Ground track

The orbit data is extracted from the following two-line orbital elements,

1 33374U 08044B   14296.32341962  .00001983  00000-0  55928-3 0  7674
2 33374 049.4245 241.6184 5457567 225.0012 343.8828 04.84562864106940
Epoch (UTC): 23 October 2014 07:45:43
Eccentricity: 0.5457567
inclination: 49.4245°
perigee height: 322 km
apogee height: 16424 km
right ascension of ascending node: 241.6184°
argument of perigee: 225.0012°
revolutions per day: 4.84562864
mean anomaly at epoch: 343.8828°
orbit number at epoch: 10694

The dashed part of the orbit path shows where the satellite is in the earth's shadow,  

DLR